Weather History for Broomfield, CO

Change the Weather History Date:

Wednesday, February 13, 2013

  Actual Average Record
Temperature  
Mean Temperature 36 °F -  
Max Temperature 46 °F 45 °F 69 °F (2009)
Min Temperature 26 °F 24 °F 12 °F (1986)
Degree Days  
Heating Degree Days 29    
Moisture  
Dew Point 5 °F    
Average Humidity 30    
Maximum Humidity 43    
Minimum Humidity 17    
Precipitation  
Precipitation 0.00 in - - ()
Sea Level Pressure  
Sea Level Pressure 29.94 in    
Wind  
Wind Speed 11 mph (West)    
Max Wind Speed 28 mph    
Max Gust Speed 39 mph    
Visibility 11 miles    
Events      
Averages and records for this station are not official NWS values.
T = Trace of Precipitation, MM = Missing Value Source: NWS Daily Summary

Daily Weather History Graph

Daily Weather History Graph

Search for Another Location

Airport:

Trip Planner

Search our weather history database for the weather conditions in past years. The results will help you decide how hot, cold, wet, or windy it might be!

Date:

Astronomy

Feb. 13, 2013 Rise Set
Actual Time 6:55 AM MST 5:34 PM MST
Civil Twilight 6:27 AM MST 6:02 PM MST
Nautical Twilight 5:55 AM MST 6:34 PM MST
Astronomical Twilight 5:24 AM MST 7:05 PM MST
Moon 8:26 AM MST (2/13) 9:39 PM MST (2/13)
Length of Visible Light 11h 34m
Length of Day
10h 39m
Waxing Crescent, 14% of the Moon is Illuminated
Feb 13
Waxing Crescent
Feb 17
First Quarter
Feb 25
Full
Mar 4
Last Quarter
Mar 11
New

Hourly Weather History & Observations

Time (MST) Temp. Windchill Dew Point Humidity Pressure Visibility Wind Dir Wind Speed Gust Speed Precip Events Conditions
12:16 AM 32.0 °F 21.6 °F 3.2 °F 30% 29.99 in 10.0 mi NW 15.0 mph 19.6 mph N/A   Scattered Clouds
12:34 AM 33.8 °F 24.8 °F 3.2 °F 28% 29.99 in 10.0 mi NW 12.7 mph - N/A   Overcast
12:56 AM 32.0 °F 23.6 °F 3.2 °F 30% 29.99 in 10.0 mi NW 10.4 mph - N/A   Overcast
1:16 AM 32.0 °F 21.2 °F 5.0 °F 32% 29.98 in 10.0 mi WNW 16.1 mph - N/A   Scattered Clouds
1:36 AM 28.4 °F 21.2 °F 5.0 °F 37% 29.98 in 10.0 mi SW 6.9 mph - N/A   Clear
1:56 AM 28.4 °F - 5.0 °F 37% 29.97 in 10.0 mi Calm Calm - N/A   Clear
2:16 AM 28.4 °F - 5.0 °F 37% 29.96 in 10.0 mi Calm Calm - N/A   Clear
2:36 AM 28.4 °F - 5.0 °F 37% 29.94 in 10.0 mi Calm Calm - N/A   Clear
2:56 AM 28.4 °F - 5.0 °F 37% 29.93 in 10.0 mi Calm Calm - N/A   Clear
3:15 AM 28.4 °F - 5.0 °F 37% 29.92 in 10.0 mi Calm Calm - N/A   Clear
3:36 AM 26.6 °F - 5.0 °F 40% 29.91 in 10.0 mi Calm Calm - N/A   Clear
3:56 AM 28.4 °F - 5.0 °F 37% 29.91 in 10.0 mi Calm Calm - N/A   Clear
4:16 AM 26.6 °F 22.6 °F 6.8 °F 43% 29.92 in 10.0 mi SE 3.5 mph - N/A   Clear
4:36 AM 26.6 °F 22.6 °F 6.8 °F 43% 29.91 in 10.0 mi SSE 3.5 mph - N/A   Clear
4:56 AM 28.4 °F - 8.6 °F 43% 29.91 in 10.0 mi Calm Calm - N/A   Clear
6:50 AM 33.8 °F - 3.2 °F 28% 29.87 in 30.0 mi Calm Calm - N/A   Scattered Clouds
7:48 AM 32.0 °F - 6.8 °F 35% 29.90 in 70.0 mi Calm Calm - N/A   Mostly Cloudy
8:48 AM 32.0 °F 28.7 °F 8.6 °F 38% 29.90 in 70.0 mi SE 3.5 mph - N/A   Mostly Cloudy
9:47 AM 44.6 °F 36.4 °F 3.2 °F 18% 29.91 in 70.0 mi West 20.7 mph 25.3 mph N/A   Mostly Cloudy
9:55 AM 44.6 °F 35.3 °F 1.4 °F 17% 29.91 in 70.0 mi West 26.5 mph 31.1 mph N/A   Mostly Cloudy
10:53 AM 41.0 °F 30.5 °F 5.0 °F 23% 29.94 in 70.0 mi West 26.5 mph 39.1 mph N/A   Mostly Cloudy
11:47 AM 41.0 °F 31.4 °F 5.0 °F 23% 29.95 in 70.0 mi West 21.9 mph 25.3 mph N/A   Mostly Cloudy
12:47 PM 46.4 °F 41.1 °F 5.0 °F 18% 29.94 in 70.0 mi West 11.5 mph 17.3 mph N/A   Mostly Cloudy
1:52 PM 46.4 °F 37.9 °F 3.2 °F 17% 29.92 in 50.0 mi West 25.3 mph 32.2 mph N/A   Scattered Clouds
3:53 PM 41.0 °F 32.8 °F 8.6 °F 26% 29.92 in 50.0 mi West 16.1 mph 29.9 mph N/A   Scattered Clouds
4:53 PM 42.8 °F 32.7 °F 8.6 °F 25% 29.91 in 40.0 mi West 27.6 mph 38.0 mph N/A   Scattered Clouds
5:55 PM 41.0 °F 31.1 °F 6.8 °F 24% 29.92 in 30.0 mi WNW 23.0 mph 39.1 mph N/A   Scattered Clouds
6:50 PM 39.2 °F 28.7 °F 6.8 °F 26% 29.95 in 30.0 mi West 23.0 mph 27.6 mph N/A   Scattered Clouds
7:53 PM 39.2 °F 28.7 °F 6.8 °F 26% 29.96 in 30.0 mi West 23.0 mph 29.9 mph N/A   Scattered Clouds
8:47 PM 39.2 °F 29.3 °F 6.8 °F 26% 29.96 in 20.0 mi West 20.7 mph 29.9 mph N/A   Scattered Clouds
9:49 PM 39.2 °F 29.3 °F 6.8 °F 26% 29.97 in 20.0 mi WNW 20.7 mph - N/A   Scattered Clouds